TimeCDT,TemperatureF,Dew PointF,Humidity,Sea Level PressureIn,VisibilityMPH,Wind Direction,Wind SpeedMPH,Gust SpeedMPH,PrecipitationIn,Events,Conditions,WindDirDegrees,DateUTC
12:56 AM,77.0,66.0,69,29.73,10.0,SSE,6.9,-,N/A,,Clear,150,2013-07-12 05:56:00
1:56 AM,75.0,66.0,73,29.72,10.0,South,11.5,-,N/A,,Clear,170,2013-07-12 06:56:00
2:56 AM,75.0,66.0,73,29.70,10.0,South,12.7,-,N/A,,Clear,170,2013-07-12 07:56:00
3:56 AM,73.9,66.0,76,29.69,10.0,SSE,12.7,-,N/A,,Clear,160,2013-07-12 08:56:00
4:56 AM,73.9,66.0,76,29.68,10.0,South,16.1,-,N/A,,Clear,170,2013-07-12 09:56:00
5:56 AM,72.0,66.9,84,29.68,10.0,South,13.8,-,N/A,,Clear,170,2013-07-12 10:56:00
6:56 AM,72.0,66.0,81,29.68,10.0,South,16.1,-,N/A,,Clear,170,2013-07-12 11:56:00
7:56 AM,73.0,66.0,79,29.70,10.0,South,12.7,-,N/A,,Clear,180,2013-07-12 12:56:00
8:56 AM,73.0,66.0,79,29.69,10.0,South,17.3,-,N/A,,Partly Cloudy,180,2013-07-12 13:56:00
9:56 AM,77.0,66.0,69,29.68,10.0,South,17.3,24.2,N/A,,Clear,190,2013-07-12 14:56:00
10:56 AM,81.0,66.9,62,29.69,10.0,SSW,13.8,-,N/A,,Clear,200,2013-07-12 15:56:00
11:56 AM,84.9,69.1,59,29.69,10.0,South,11.5,-,N/A,,Clear,190,2013-07-12 16:56:00
12:56 PM,84.9,69.1,59,29.69,10.0,SSE,6.9,-,N/A,,Scattered Clouds,160,2013-07-12 17:56:00
1:56 PM,84.0,70.0,63,29.71,10.0,SSW,6.9,-,N/A,,Overcast,200,2013-07-12 18:56:00
2:56 PM,82.0,71.1,69,29.72,10.0,North,9.2,-,N/A,,Overcast,10,2013-07-12 19:56:00
3:56 PM,82.9,72.0,69,29.73,10.0,NE,9.2,-,N/A,,Clear,40,2013-07-12 20:56:00
4:56 PM,84.0,73.0,69,29.75,10.0,North,10.4,-,N/A,,Clear,10,2013-07-12 21:56:00
5:56 PM,82.0,73.0,74,29.76,10.0,NE,8.1,-,N/A,,Partly Cloudy,40,2013-07-12 22:56:00
6:56 PM,84.0,73.0,69,29.76,10.0,NE,6.9,-,N/A,,Clear,40,2013-07-12 23:56:00
7:56 PM,84.0,73.0,69,29.76,10.0,NNE,4.6,-,N/A,,Clear,20,2013-07-13 00:56:00
8:56 PM,79.0,73.0,82,29.78,10.0,North,4.6,-,N/A,,Clear,360,2013-07-13 01:56:00
9:56 PM,73.0,70.0,90,29.80,10.0,North,6.9,-,N/A,,Clear,350,2013-07-13 02:56:00
10:56 PM,72.0,70.0,93,29.83,10.0,NNW,5.8,-,N/A,,Clear,340,2013-07-13 03:56:00
11:56 PM,68.0,66.9,96,29.86,10.0,Calm,Calm,-,N/A,,Clear,0,2013-07-13 04:56:00